Location: Barton Flats Campground
(34.1722°N, 116.8753°W)
Time: 20:19:55
(UTC+00:00)

Hubble Space Telescope - Pass Details

Date: 08 August 2020
Orbit: 536 x 540 km, 28.5° (Epoch: 01 October)

Event Time Altitude Azimuth Distance (km) Brightness Sun altitude
Exits shadow 12:29:53 - 218° (SW) 2,063 3.2 -7.4°
Reaches altitude 10° 12:30:48 10° 210° (SSW) 1,780 2.9 -7.2°
Maximum altitude 12:33:51 20° 163° (SSE) 1,269 2.6 -6.6°
Drops below altitude 10° 12:36:54 10° 115° (ESE) 1,784 4.1 -6.1°
Sets 12:39:36 0° 98° (E) 2,677 5.5 -5.6°
